TimeMST,TemperatureF,Dew PointF,Humidity,Sea Level PressureIn,VisibilityMPH,Wind Direction,Wind SpeedMPH,Gust SpeedMPH,PrecipitationIn,Events,Conditions,WindDirDegrees,DateUTC
12:53 AM,28.0,12.0,51,29.80,10.0,WSW,18.4,31.1,N/A,,Mostly Cloudy,250,2012-12-08 07:53:00
1:53 AM,28.0,12.0,51,29.77,10.0,WSW,24.2,33.4,N/A,,Partly Cloudy,240,2012-12-08 08:53:00
2:53 AM,28.0,14.0,56,29.75,10.0,WSW,21.9,34.5,N/A,,Scattered Clouds,240,2012-12-08 09:53:00
3:53 AM,28.0,12.9,53,29.71,10.0,WSW,26.5,35.7,N/A,,Clear,240,2012-12-08 10:53:00
4:53 AM,28.0,12.9,53,29.71,10.0,WSW,21.9,34.5,N/A,,Partly Cloudy,240,2012-12-08 11:53:00
5:53 AM,28.0,19.9,72,29.71,3.0,WSW,25.3,36.8,0.00,Snow,Light Snow,240,2012-12-08 12:53:00
5:57 AM,26.6,19.4,74,29.68,1.8,WSW,26.5,36.8,0.00,Snow,Light Snow,250,2012-12-08 12:57:00
6:09 AM,26.6,21.2,80,29.67,0.8,WSW,24.2,34.5,0.00,Snow,Light Snow,240,2012-12-08 13:09:00
6:34 AM,24.8,21.2,86,29.67,1.2,WSW,24.2,35.7,0.00,Snow,Light Snow,240,2012-12-08 13:34:00
6:41 AM,24.8,21.2,86,29.67,3.0,WSW,20.7,28.8,0.00,Snow,Light Snow,240,2012-12-08 13:41:00
6:47 AM,24.8,21.2,86,29.67,1.8,WSW,23.0,35.7,0.00,Snow,Light Snow,250,2012-12-08 13:47:00
6:53 AM,25.0,21.9,88,29.74,0.8,WSW,26.5,35.7,0.00,Snow,Light Snow,250,2012-12-08 13:53:00
7:03 AM,24.8,21.2,86,29.68,0.8,WSW,20.7,32.2,0.00,Snow,Light Snow,250,2012-12-08 14:03:00
7:13 AM,24.8,21.2,86,29.68,0.5,West,19.6,26.5,0.01,Fog-Snow,Snow,270,2012-12-08 14:13:00
7:29 AM,24.8,21.2,86,29.68,0.5,West,25.3,33.4,0.02,Fog-Snow,Light Snow,260,2012-12-08 14:29:00
7:35 AM,26.6,19.4,74,29.69,2.5,West,25.3,35.7,0.02,Snow,Light Snow,260,2012-12-08 14:35:00
7:37 AM,26.6,19.4,74,29.69,4.0,WSW,25.3,35.7,0.02,Snow,Light Snow,250,2012-12-08 14:37:00
7:53 AM,26.1,19.0,75,29.75,6.0,West,26.5,38.0,0.02,,Overcast,260,2012-12-08 14:53:00
8:53 AM,26.1,16.0,66,29.76,10.0,West,20.7,31.1,0.00,,Overcast,260,2012-12-08 15:53:00
9:53 AM,26.1,17.1,69,29.76,10.0,WSW,26.5,36.8,N/A,,Overcast,250,2012-12-08 16:53:00
10:53 AM,26.1,18.0,71,29.75,10.0,West,31.1,41.4,0.00,,Clear,260,2012-12-08 17:53:00
11:53 AM,28.9,15.1,56,29.71,10.0,West,34.5,49.5,0.00,,Scattered Clouds,260,2012-12-08 18:53:00
12:03 PM,28.4,15.8,59,29.66,1.5,West,43.7,52.9,0.00,,Scattered Clouds,260,2012-12-08 19:03:00
12:13 PM,28.4,14.0,55,29.66,3.0,West,31.1,47.2,0.00,,Partly Cloudy,270,2012-12-08 19:13:00
12:53 PM,24.1,16.0,71,29.75,4.0,WNW,21.9,35.7,0.00,Snow,Light Snow,290,2012-12-08 19:53:00
1:27 PM,21.2,14.0,74,29.71,1.8,WNW,25.3,32.2,0.00,Snow,Light Snow,290,2012-12-08 20:27:00
1:43 PM,21.2,14.0,74,29.72,2.0,WNW,23.0,31.1,0.00,Snow,Light Snow,290,2012-12-08 20:43:00
1:51 PM,21.2,14.0,74,29.73,1.5,WNW,21.9,31.1,0.00,Snow,Light Snow,290,2012-12-08 20:51:00
1:53 PM,21.0,14.0,74,29.80,1.5,WNW,24.2,31.1,0.00,Snow,Light Snow,290,2012-12-08 20:53:00
2:12 PM,21.2,10.4,63,29.73,3.0,West,24.2,34.5,0.00,Snow,Light Snow,280,2012-12-08 21:12:00
2:23 PM,21.2,8.6,58,29.73,10.0,West,25.3,36.8,0.00,,Overcast,270,2012-12-08 21:23:00
2:53 PM,21.0,-0.9,38,29.82,10.0,West,34.5,43.7,0.00,,Overcast,270,2012-12-08 21:53:00
3:53 PM,19.9,-7.1,30,29.84,10.0,West,32.2,46.0,N/A,,Overcast,270,2012-12-08 22:53:00
4:53 PM,16.0,-4.0,41,29.90,10.0,West,23.0,31.1,N/A,,Clear,280,2012-12-08 23:53:00
8:53 PM,10.9,-0.9,59,30.06,10.0,WSW,8.1,-,0.00,,Mostly Cloudy,250,2012-12-09 03:53:00
9:50 PM,10.4,-0.4,62,29.92,10.0,WSW,10.4,-,0.00,,Overcast,240,2012-12-09 04:50:00
9:53 PM,10.9,-0.0,61,30.07,10.0,WSW,10.4,-,0.00,,Overcast,240,2012-12-09 04:53:00
10:53 PM,12.0,1.0,61,30.08,10.0,WSW,9.2,-,0.00,,Overcast,250,2012-12-09 05:53:00
11:34 PM,12.2,6.8,79,29.94,2.0,NW,9.2,-,0.00,Snow,Light Snow,310,2012-12-09 06:34:00
11:53 PM,12.0,8.1,84,30.07,1.8,NW,10.4,-,0.00,Snow,Light Snow,310,2012-12-09 06:53:00